Terminal Aerodrome Forecast
Issued by NWS

Home | Current Version | Previous Version | Text Only | Print | Product List | Glossary On
Versions: 1 2 3 4 5 6 7 8 9 10 11 12 13 14 15 16 17 18 19 20 21 22 23
749
FTUS41 KBGM 040830 AAA
TAFITH
TAF AMD
KITH 040830Z 0409/0506 VRB02KT 4SM -DZ BR OVC025
      TEMPO 0410/0412 2SM -DZ BR
     FM041500 14006KT 5SM -RA BR OVC015=

USA.gov is the U.S. government's official web portal to all federal, state and local government web resources and services.